Location: Albany
(35.0000°S, 118.0000°E)
Time: 14:56:44
(UTC-04:00)

JAS-1B - Visible Passes

Search period start: 29 August 2015 00:00
Search period end: 08 September 2015 00:00
Orbit: 911 x 1745 km, 99.1° (Epoch: 29 August)

Date Brightness Start Highest point End Pass type
(mag) Time Alt. Az. Time Alt. Az. Time Alt. Az.
29 Aug 9.3 08:10:09 23° SE 08:10:09 23° SE 08:15:14 10° S visible
29 Aug 9.3 10:02:23 32° SSW 10:02:23 32° SSW 10:07:00 10° SSW visible
30 Aug 9.1 08:29:21 28° SSE 08:29:21 28° SSE 08:34:52 10° S visible
30 Aug 9.5 10:21:36 29° SSW 10:21:36 29° SSW 10:25:58 10° SSW visible
31 Aug 9.0 08:48:34 34° SSE 08:48:34 34° SSE 08:54:20 10° S visible
31 Aug 9.6 10:40:49 26° SW 10:40:49 26° SW 10:44:48 10° SSW visible
01 Sep 9.6 07:15:32 12° SE 07:15:36 12° SE 07:19:04 10° SSE visible
01 Sep 8.9 09:07:47 38° SSE 09:07:47 38° SSE 09:13:41 10° S visible
01 Sep 9.8 11:00:02 21° SW 11:00:02 21° SW 11:03:27 10° SSW visible
02 Sep 9.5 07:34:46 17° SE 07:34:46 17° SE 07:39:52 10° SSE visible
02 Sep 8.9 09:27:01 41° S 09:27:01 41° S 09:32:55 10° S visible
02 Sep 10.0 11:19:15 17° SW 11:19:15 17° SW 11:21:50 10° SW visible
03 Sep 9.3 07:53:59 22° SE 07:53:59 22° SE 07:59:54 10° SSE visible
03 Sep 9.0 09:46:14 41° SSW 09:46:14 41° SSW 09:52:04 10° SSW visible
03 Sep 10.2 11:38:28 13° SW 11:38:28 13° SW 11:39:48 10° SW visible
04 Sep 9.1 08:13:12 28° SE 08:13:12 28° SE 08:19:37 10° S visible
04 Sep 9.1 10:05:27 39° SSW 10:05:27 39° SSW 10:11:06 10° SSW visible
05 Sep 8.9 08:32:25 34° SE 08:32:25 34° SE 08:39:09 10° S visible
05 Sep 9.3 10:24:40 34° SW 10:24:40 34° SW 10:30:01 10° SSW visible
06 Sep 8.7 08:51:39 41° SSE 08:51:39 41° SSE 08:58:33 10° S visible
06 Sep 9.5 10:43:54 29° SW 10:43:54 29° SW 10:48:46 10° SSW visible
07 Sep 9.5 07:18:37 14° ESE 07:19:17 14° SE 07:24:06 10° SSE visible
07 Sep 8.6 09:10:53 48° SSE 09:10:53 48° SSE 09:17:51 10° S visible
07 Sep 9.8 11:03:08 23° SW 11:03:08 23° SW 11:07:20 10° SSW visible
